GW4332 Weather Reports


time (UTC)temp
F
wind
direction
speed
knots
gust
knots
rain 1hr
in
rain 24hr
in
rain mn
in
humidity
%
barometer
mb
20260903113030 68 247 19.1 26.9 0.00 0.00 0.06 85 1014.4
20260903112029 68 247 18.2 26.9 0.00 0.00 0.06 84 1014.4
20260903111030 68 254 20.0 26.9 0.00 0.00 0.06 84 1014.4
20260903110030 68 237 20.0 26.9 0.00 0.00 0.06 85 1014.4
20260903105030 68 256 20.9 29.5 0.00 0.00 0.06 85 1014.3
20260903104029 68 250 21.7 29.5 0.00 0.00 0.06 84 1014.0
20260903103030 68 240 16.5 22.6 0.00 0.00 0.06 85 1014.3
20260903102030 68 244 17.4 23.5 0.00 0.00 0.06 85 1014.3
20260903101029 68 225 16.5 23.5 0.00 0.00 0.06 86 1014.4
20260903100030 68 241 15.6 20.9 0.00 0.00 0.06 86 1014.4
20260903095030 68 236 14.8 20.0 0.00 0.00 0.06 87 1014.5
20260903094030 67 239 16.5 22.6 0.00 0.00 0.06 89 1014.3
20260903093030 67 247 16.5 20.9 0.00 0.00 0.06 90 1014.3
20260903092029 67 214 14.8 21.7 0.00 0.00 0.06 91 1014.2
20260903091030 67 216 13.0 20.9 0.00 0.00 0.06 92 1014.4
20260903090030 66 216 12.2 18.2 0.00 0.00 0.06 93 1014.4
20260903085029 66 219 11.3 20.0 0.00 0.00 0.06 93 1014.3
20260903084030 66 216 8.7 13.9 0.00 0.00 0.06 94 1014.1
20260903083030 66 210 10.4 18.2 0.00 0.00 0.06 94 1014.0
20260903082030 66 227 12.2 18.2 0.00 0.00 0.06 94 1014.1
20260903081030 66 221 12.2 18.2 0.00 0.00 0.06 94 1014.1
20260903080030 65 229 13.0 19.1 0.00 0.00 0.06 94 1014.1
20260903075030 65 228 13.0 20.0 0.00 0.00 0.06 94 1014.0
20260903074029 65 235 15.6 21.7 0.00 0.00 0.06 94 1013.8
20260903073030 65 235 14.8 24.3 0.00 0.00 0.06 94 1013.9
20260903072030 65 216 9.6 16.5 0.00 0.00 0.06 94 1014.1
20260903071030 65 198 7.8 13.9 0.00 0.00 0.04 94 1014.2
20260903070030 64 197 7.0 12.2 0.00 0.00 0.03 93 1014.1
20260903065030 64 199 5.2 12.2 0.00 0.00 0.03 93 1014.0
20260903064030 64 185 7.0 13.9 0.00 0.00 0.02 93 1014.0
20260903063030 64 198 8.7 14.8 0.00 0.00 0.02 93 1013.9
20260903062030 64 209 7.8 15.6 0.00 0.00 0.02 92 1014.0
20260903061030 64 194 6.1 13.9 0.00 0.00 0.02 92 1013.8
20260903060030 64 181 5.2 16.5 0.00 0.00 0.01 92 1013.9
20260903055030 64 205 7.0 11.3 0.00 0.00 0.01 91 1014.0
20260903054029 64 203 7.0 13.9 0.00 0.00 0.01 91 1014.2
20260903053033 64 191 7.0 13.0 0.00 0.00 0.01 91 1014.2
20260903052030 64 196 7.8 14.8 0.00 0.00 0.00 90 1014.2
20260903051030 64 208 7.8 13.9 0.00 0.00 0.00 90 1014.3
20260903050030 64 188 7.8 17.4 0.00 0.00 0.00 89 1014.0
20260903045030 64 180 7.8 14.8 0.00 0.00 0.00 89 1013.9
20260903044030 64 190 6.1 14.8 0.00 0.00 0.00 89 1014.1
20260903043030 64 202 7.0 13.9 0.00 0.00 0.00 88 1014.1
20260903042031 64 193 7.0 13.9 0.00 0.00 0.00 87 1014.2
20260903041029 64 204 7.8 15.6 0.00 0.00 0.00 87 1014.2
20260903040031 64 200 8.7 17.4 0.00 0.00 0.00 86 1014.3
20260903035030 64 196 7.0 13.9 0.00 0.00 0.00 85 1014.4
20260903034030 64 184 7.8 15.6 0.00 0.00 0.00 85 1014.4
20260903033029 64 194 7.8 13.9 0.00 0.00 0.00 84 1014.6
20260903032030 64 193 7.8 15.6 0.00 0.00 0.00 84 1014.6
20260903031030 64 212 8.7 17.4 0.00 0.00 0.00 84 1014.7
20260903030030 64 201 7.8 13.0 0.00 0.00 0.00 83 1014.5
20260903025029 64 193 7.8 13.9 0.00 0.00 0.00 83 1014.7
20260903024030 64 209 7.8 13.9 0.00 0.00 0.00 82 1015.0
20260903023030 64 203 5.2 11.3 0.00 0.00 0.00 83 1015.0
20260903022030 64 208 5.2 9.6 0.00 0.00 0.00 82 1015.1
20260903021030 64 194 4.3 10.4 0.00 0.00 0.00 82 1015.1
20260903020030 64 192 6.1 10.4 0.00 0.00 0.00 82 1015.1
20260903015030 64 193 6.1 11.3 0.00 0.00 0.00 81 1015.1
20260903014030 64 194 5.2 12.2 0.00 0.00 0.00 81 1015.2
20260903013029 64 184 4.3 10.4 0.00 0.00 0.00 80 1015.2
20260903012030 64 194 3.5 13.9 0.00 0.00 0.00 80 1015.3
20260903011030 64 192 6.1 12.2 0.00 0.00 0.00 80 1015.5
20260903010030 64 202 6.1 12.2 0.00 0.00 0.00 80 1015.6
20260903005030 64 190 7.0 13.0 0.00 0.00 0.00 81 1015.8
20260903004030 64 195 6.1 12.2 0.00 0.00 0.00 81 1015.8
20260903003030 64 209 6.1 13.0 0.00 0.00 0.00 81 1015.9
20260903002030 64 198 7.0 16.5 0.00 0.00 0.00 82 1016.0
20260903001030 63 202 6.1 13.9 0.00 0.00 0.00 84 1016.0
20260903000030 63 191 4.3 11.3 0.00 0.00 0.00 85 1016.0
20260902235029 63 188 3.5 10.4 0.00 0.00 0.00 85 1016.1
20260902234030 63 162 1.7 7.0 0.00 0.00 0.00 86 1016.2
20260902233031 63 195 2.6 7.0 0.00 0.00 0.00 86 1016.4
20260902232030 63 174 2.6 7.0 0.00 0.00 0.00 86 1016.6
20260902231030 63 196 4.3 8.7 0.00 0.00 0.00 87 1016.8
20260902230030 63 192 6.1 12.2 0.00 0.00 0.00 87 1017.1
20260902225029 63 190 5.2 13.9 0.00 0.00 0.00 88 1017.1
20260902224030 63 138 0.9 3.5 0.00 0.00 0.00 88 1017.3
20260902223030 63 140 1.7 5.2 0.00 0.00 0.00 88 1017.3
20260902222030 63 137 1.7 4.3 0.00 0.00 0.00 87 1017.4
20260902221030 63 141 0.9 3.5 0.00 0.00 0.00 87 1017.6
20260902220030 63 139 0.9 3.5 0.00 0.00 0.02 87 1017.7
20260902215030 63 178 1.7 7.0 0.00 0.00 0.02 86 1017.7
20260902214030 63 191 3.5 8.7 0.00 0.00 0.02 86 1017.9
20260902213030 63 181 4.3 10.4 0.00 0.00 0.01 86 1018.1
20260902212029 63 193 3.5 7.8 0.00 0.00 0.01 86 1018.1
20260902211030 63 195 2.6 7.0 0.00 0.00 0.01 85 1017.9
20260902210030 63 188 2.6 7.0 0.00 0.00 0.01 85 1018.0
20260902205030 64 143 0.9 6.1 0.00 0.00 0.01 84 1017.9
20260902204030 64 145 1.7 4.3 0.00 0.00 0.01 84 1018.1
20260902203030 64 142 1.7 5.2 0.00 0.00 0.01 83 1018.1
20260902202029 64 159 0.9 4.3 0.00 0.00 0.01 82 1018.3
20260902201030 64 155 0.9 3.5 0.00 0.00 0.00 81 1018.4
20260902200030 64 184 1.7 4.3 0.00 0.00 0.00 81 1018.4
20260902195030 64 199 4.3 8.7 0.00 0.00 0.00 80 1018.5
20260902194030 64 214 4.3 8.7 0.00 0.00 0.00 80 1018.6
20260902193030 64 230 7.8 12.2 0.00 0.00 0.00 79 1018.5
20260902192029 64 239 12.2 23.5 0.00 0.00 0.00 78 1018.6
20260902191030 64 225 19.1 26.9 0.00 0.00 0.00 82 1018.6
20260902190030 66 193 5.2 10.4 0.00 0.00 0.00 77 1018.8
20260902185030 66 200 3.5 7.8 0.00 0.00 0.00 76 1018.8
20260902184030 66 200 4.3 8.7 0.00 0.00 0.00 76 1018.6
20260902183030 66 189 3.5 7.0 0.00 0.00 0.00 76 1018.6
20260902182029 66 204 4.3 7.0 0.00 0.00 0.00 76 1018.6
20260902181030 66 204 4.3 8.7 0.00 0.00 0.00 76 1018.6
20260902180030 66 201 5.2 10.4 0.00 0.00 0.00 75 1018.6
20260902175030 67 209 6.1 12.2 0.00 0.00 0.00 75 1018.7
20260902174030 67 209 6.1 11.3 0.00 0.00 0.00 76 1018.6
20260902173030 67 213 6.1 10.4 0.00 0.00 0.00 76 1018.7
20260902172029 67 219 7.0 11.3 0.00 0.00 0.00 76 1018.7
20260902171030 67 218 7.0 12.2 0.00 0.00 0.00 76 1018.7
20260902170030 67 227 9.6 13.9 0.00 0.00 0.00 76 1018.7
20260902165030 67 218 8.7 13.0 0.00 0.00 0.00 77 1018.6
20260902164030 67 228 8.7 13.0 0.00 0.00 0.00 77 1018.7
20260902163030 67 236 9.6 13.0 0.00 0.00 0.00 76 1018.8
20260902162030 67 236 10.4 13.9 0.00 0.00 0.00 76 1018.7
20260902161030 67 239 10.4 13.0 0.00 0.00 0.00 76 1018.8
20260902160030 68 236 10.4 13.9 0.00 0.00 0.00 75 1018.8
20260902155030 68 235 10.4 13.9 0.00 0.00 0.00 73 1018.9
20260902154030 68 244 11.3 14.8 0.00 0.00 0.00 72 1018.9
20260902153029 68 230 12.2 15.6 0.00 0.00 0.00 72 1019.0
20260902152030 68 239 11.3 15.6 0.00 0.00 0.00 72 1019.0
20260902151030 68 247 12.2 16.5 0.00 0.00 0.00 73 1019.0
20260902150030 68 234 13.0 18.2 0.00 0.00 0.00 72 1019.1
20260902145030 69 263 13.0 15.6 0.00 0.00 0.00 72 1019.3
20260902144029 69 239 9.6 14.8 0.00 0.00 0.00 73 1019.3
20260902143030 68 225 8.7 12.2 0.00 0.00 0.00 74 1019.2
20260902142030 68 250 9.6 13.0 0.00 0.00 0.00 74 1019.2
20260902141030 69 232 7.8 11.3 0.00 0.00 0.00 74 1019.2
20260902140030 69 253 10.4 13.0 0.00 0.00 0.00 72 1019.2
20260902135030 69 240 11.3 14.8 0.00 0.00 0.00 71 1019.1
20260902134030 69 247 11.3 14.8 0.00 0.00 0.00 72 1019.1
20260902133030 69 243 10.4 13.9 0.00 0.00 0.00 71 1019.1
20260902132030 69 257 8.7 11.3 0.00 0.00 0.00 75 1019.2
20260902131030 68 252 9.6 12.2 0.00 0.00 0.00 73 1019.1
20260902130030 68 254 11.3 13.9 0.00 0.00 0.00 73 1019.3
20260902125030 68 241 10.4 13.9 0.00 0.00 0.00 73 1019.3
20260902124030 68 233 10.4 13.9 0.00 0.00 0.00 73 1019.2
20260902123030 68 243 8.7 11.3 0.00 0.00 0.00 75 1019.3
20260902122029 67 246 9.6 12.2 0.00 0.00 0.00 75 1019.3
20260902121029 67 246 10.4 13.0 0.00 0.00 0.00 75 1019.4
20260902120030 67 240 10.4 13.0 0.00 0.00 0.00 76 1019.3
20260902115030 67 248 12.2 15.6 0.00 0.00 0.00 76 1019.5
20260902114030 67 259 13.0 17.4 0.00 0.00 0.00 75 1019.6